Williamstown, MA

1:43 AM EDT on August 27, 2016 (GMT -0400)
Harriman And West

Weather History for KAQW - February, 2013

Change the Weather History Date:

Sunday, February 17, 2013

  Actual Average Record
Temperature  
Mean Temperature 16 °F -  
Max Temperature 23 °F 33 °F 55 °F (2006)
Min Temperature 10 °F 16 °F -2 °F (2004)
Degree Days  
Heating Degree Days 48    
Moisture  
Dew Point -2 °F    
Average Humidity 44    
Maximum Humidity 54    
Minimum Humidity 29    
Precipitation  
Precipitation 0.00 in - - ()
Sea Level Pressure  
Sea Level Pressure 29.71 in    
Wind  
Wind Speed 11 mph (WNW)    
Max Wind Speed 23 mph    
Max Gust Speed 33 mph    
Visibility 10 miles    
Events      
Averages and records for this station are not official NWS values.
T = Trace of Precipitation, MM = Missing Value Source: NWS Daily Summary

Daily Weather History Graph

Daily Weather History Graph

Search for Another Location

Airport or City:

Trip Planner

Search our weather history database for the weather conditions in past years. The results will help you decide how hot, cold, wet, or windy it might be!

Date:

Astronomy

Feb. 17, 2013 Rise Set
Actual Time 6:46 AM EST 5:27 PM EST
Civil Twilight 6:17 AM EST 5:56 PM EST
Nautical Twilight 5:44 AM EST 6:29 PM EST
Astronomical Twilight 5:12 AM EST 7:01 PM EST
Moon 10:26 AM EST (2/17) 12:31 AM EST (2/17)
Length of Visible Light 11h 38m
Length of Day
10h 40m
Waxing Crescent, 49% of the Moon is Illuminated
Feb 17
Waxing Crescent
Feb 17
First Quarter
Feb 25
Full
Mar 4
Last Quarter
Mar 11
New

Hourly Weather History & Observations

Time (EST) Temp. Windchill Dew Point Humidity Pressure Visibility Wind Dir Wind Speed Gust Speed Precip Events Conditions
12:52 AM 21.0 °F 11.4 °F 1.0 °F 42% 29.77 in 10.0 mi WNW 8.1 mph - N/A   Overcast
1:52 AM 21.0 °F 10.6 °F -0.0 °F 40% 29.78 in 10.0 mi WNW 9.2 mph - N/A   Overcast
2:52 AM 19.9 °F 9.3 °F -0.0 °F 42% 29.75 in 10.0 mi West 9.2 mph - N/A   Overcast
3:52 AM 19.0 °F 10.0 °F -0.0 °F 43% 29.73 in 10.0 mi West 6.9 mph 19.6 mph N/A   Overcast
4:52 AM 18.0 °F 6.9 °F -0.0 °F 45% 29.73 in 10.0 mi West 9.2 mph 18.4 mph N/A   Mostly Cloudy
5:52 AM 17.1 °F 7.6 °F -0.0 °F 47% 29.72 in 10.0 mi Variable 6.9 mph 19.6 mph N/A   Scattered Clouds
6:52 AM 16.0 °F 1.7 °F -0.0 °F 49% 29.70 in 10.0 mi West 13.8 mph 24.2 mph N/A   Partly Cloudy
7:52 AM 15.1 °F -0.1 °F -0.0 °F 51% 29.68 in 10.0 mi West 15.0 mph 23.0 mph N/A   Overcast
8:52 AM 15.1 °F 3.3 °F -0.0 °F 51% 29.69 in 10.0 mi WNW 9.2 mph 19.6 mph N/A   Overcast
9:52 AM 15.1 °F 4.2 °F 1.0 °F 54% 29.68 in 10.0 mi WNW 8.1 mph 24.2 mph N/A   Scattered Clouds
10:52 AM 16.0 °F 1.7 °F -0.0 °F 49% 29.67 in 10.0 mi NW 13.8 mph 28.8 mph N/A   Mostly Cloudy
11:52 AM 18.0 °F 4.8 °F 1.0 °F 48% 29.65 in 10.0 mi WNW 12.7 mph 26.5 mph N/A   Partly Cloudy
12:52 PM 19.9 °F 8.6 °F -2.0 °F 38% 29.63 in 10.0 mi NW 10.4 mph 21.9 mph N/A   Clear
1:52 PM 23.0 °F 12.4 °F -0.9 °F 35% 29.61 in 10.0 mi NW 10.4 mph 21.9 mph N/A   Clear
2:52 PM 23.0 °F 10.6 °F -4.0 °F 31% 29.61 in 10.0 mi WNW 13.8 mph 32.2 mph N/A   Clear
3:52 PM 23.0 °F 12.4 °F -5.1 °F 29% 29.62 in 10.0 mi WNW 10.4 mph 25.3 mph N/A   Clear
4:52 PM 19.9 °F 4.3 °F -4.0 °F 35% 29.66 in 10.0 mi West 19.6 mph 33.4 mph N/A   Partly Cloudy
5:52 PM 19.0 °F 2.0 °F -5.1 °F 34% 29.71 in 10.0 mi West 23.0 mph 32.2 mph N/A   Clear
6:52 PM 15.1 °F -2.5 °F -2.0 °F 47% 29.75 in 10.0 mi West 20.7 mph 29.9 mph N/A   Clear
7:52 PM 14.0 °F -2.5 °F -2.9 °F 47% 29.79 in 10.0 mi West 17.3 mph 31.1 mph N/A   Mostly Cloudy
8:52 PM 12.0 °F -5.6 °F -4.0 °F 49% 29.81 in 10.0 mi West 18.4 mph 29.9 mph N/A   Mostly Cloudy
9:52 PM 10.9 °F -7.9 °F -4.0 °F 51% 29.83 in 10.0 mi West 20.7 mph 27.6 mph N/A   Overcast
10:52 PM 10.9 °F -6.5 °F -4.0 °F 51% 29.86 in 10.0 mi West 17.3 mph 28.8 mph N/A   Overcast